FENGYUN 1C DEB, 30275

Orbit data source: Space-Track

FENGYUN 1C DEB, 30275 is space debris in SSO originally from a launch on Mon, 10 May 1999 UTC launched from the Taiyaun Space Center, China (TSC). Fengyun 1C debris stems from the Chinese weather satellite Fengyun-1C, which was intentionally destroyed by a Chinese anti-satellite missile in 2007. This event dramatically increased the amount of space debris, with thousands of trackable fragments posing hazards to satellites and human spaceflight. The Fengyun 1C debris cloud has become a focal point in discussions about space sustainability and the need for international regulations to prevent the creation of new debris.

Loading next visibility...
Identifier
30275, 1999-025YL
Orbit
SSO
Country
Flag of CNCN / PRC
Related business
Manufacturer
Unknown
Mission
Spacecraft
Bus & Motor
Unknown
Mass
Unknown
Launch date (UTC)
1999-05-10 (27 years ago)
Launch vehicle
Unknown
Launch site
Taiyaun Space Center, China (TSC)
Object type
Payload
Rocket body
Debris
Shape & HBR
Unknown shape, 0.1 m
Radar Cross Section
Small (<0.1 m²)

Expand to show TLE details & history
Last TLE update: 10 hours ago

TLE from 10 hours ago
0 FENGYUN 1C DEB
1 30275U 99025YL  26071.18947213  .00007130  00000-0  19632-2 0  9997
2 30275  98.6189 161.9689 0036473 274.1279 144.7825 14.46806725993774
Epoch: 2026-03-12T04:32Z
TLE epoch observation values (Epoch: 2026-03-12T04:32:50.392Z)
Latitude
58.18311°
Longitude
-90.14767°
Altitude
767.123 km
Speed
7.465 km/s
True Right ascension
09h 51m 37s
True Declination
58° 01' 44"
Sunlit
Object was in full shadow at epoch
Visualization orbit readout
Latitude
Unknown
Longitude
Unknown
Altitude
Unknown
Speed
Unknown
Apparent Right ascension
Unknown
Apparent Declination
Unknown
Sunlit
N/A
Visualization observer readout
Local Sidereal Time
18:36:27
Azimuth
Unknown
Elevation
Unknown
Doppler factor
Unknown
Orbital elements
Apogee altitude
759.153 km
Perigee altitude
707.278 km
Semi-major axis
7,111.353 km
Eccentricity
0.00365
Inclination
98.6189°
RAAN
161.9689°
Arg. of periapsis
274.1279°
True anomaly
145.02263°
Mean anomaly
144.7825°
Eccentric anomaly
144.90265°
Mean motion
3.61922 °/min
Orbital period
99.47 mins
BSTAR
0.0019632
Loading maneuver chart data...
Computing Atmospheric mass density...
Loading historical data...
Loading historical data...
Loading historical data...
Loading historical data...
Loading historical data...
Loading historical data...
Loading historical data...

Documentation

Showing up to 5 results
|